Location: Domont
(49.0278°N, 2.3264°E)
Time: 16:42:36
(UTC+00:00)

Envisat - Pass Details

Date: 02 February 2022
Orbit: 764 x 765 km, 98.2° (Epoch: 19 May)

Event Time Altitude Azimuth Distance (km) Brightness Sun altitude
Rises 03:16:47 0° 30° (NNE) 3,243 6.8 -39.6°
Reaches altitude 10° 03:20:20 10° 56° (NE) 2,310 6.1 -39.1°
Maximum altitude 03:22:54 14° 86° (E) 2,053 5.8 -38.7°
Drops below altitude 10° 03:25:26 10° 117° (ESE) 2,302 5.9 -38.3°
Sets 03:28:56 0° 142° (SE) 3,222 6.4 -37.8°
